Flag for Norway Weather past 2 weeks in Flekkefjord, Norway

Now
57 °F

Cool.


Feels Like: 57 °F
Forecast: 56 / 59 °F
Wind: 1 mph from Northeast

Location: Lista Fyr

Current Time: Sep 1, 2015 at 12:30:19 AM

Latest Report: Aug 31, 2015 at 10:00 PM


Visibility: N/A

Pressure: 29.92 "Hg

Humidity: 84%

Dew point: 53 °F

Location of FlekkefjordLocation

Historic Weather in Flekkefjord — Graph

°F

Flekkefjord temperature yesterday

Maximum temperature yesterday: 66 °F (at 3:00 PM)
Minimum temperature yesterday: 51 °F (at 6:00 AM)
Average temperature yesterday: 58 °F

Past Weeks' High & Low Weather Summary

 TemperatureHumidityPressure
High72 °F (Aug 19, 5:00 PM)100% (Aug 31, 4:00 AM)30.27 "Hg (Aug 31, 4:00 AM)
Low51 °F (Aug 31, 6:00 AM)48% (Aug 17, 4:00 PM)29.50 "Hg (Aug 25, 6:00 PM)
Average63 °F77%29.99 "Hg
* Reported Aug 16 10:00 PM — Aug 31 10:00 PM, Flekkefjord, Weather by CustomWeather, © 2015

Note: Actual official high and low records may vary slightly from our data, if they occured in-between our weather recording intervals... More about our weather records

Advertising

Flekkefjord weather history for previous 24 hours

 ConditionsComfort  
Time TempWeatherWind HumidityBarometerVisibility
10:00 PM
Mon, Aug 31
57 °FCool.1 mph84%29.92 "HgN/A
9:00 PM59 °FCool.3 mph79%29.93 "HgN/A
8:00 PM60 °FOvercast.2 mph77%29.94 "Hg16 mi
7:00 PM61 °FCool.2 mph76%29.95 "HgN/A
6:00 PM61 °FCool.3 mph75%29.97 "HgN/A
5:00 PM62 °FCool.2 mph76%29.98 "HgN/A
4:00 PM62 °FCool.3 mph70%29.99 "HgN/A
3:00 PM66 °FMild.2 mph61%30.01 "HgN/A
2:00 PM66 °FPassing clouds.5 mph68%30.02 "Hg12 mi
1:00 PM65 °FMild.2 mph56%30.01 "HgN/A
12:00 PM63 °FMild.5 mph70%30.03 "HgN/A
11:00 AM62 °FFog.2 mph77%30.04 "Hg5 mi
10:00 AM60 °FCool.2 mph93%30.04 "HgN/A
9:00 AM56 °FCool.3 mph100%30.05 "HgN/A
8:00 AM51 °FFog.2 mph100%30.06 "Hg6 mi
7:00 AM51 °FCool.2 mphN/A30.06 "HgN/A
6:00 AM51 °FCool.2 mph100%30.06 "HgN/A
5:00 AM51 °FCool.2 mph100%30.07 "HgN/A
4:00 AM52 °FCool.2 mph100%30.07 "HgN/A
3:00 AM52 °FCool.2 mph99%30.07 "HgN/A
2:00 AM53 °FCool.2 mph98%30.08 "HgN/A
1:00 AM54 °FCool.2 mph97%30.10 "HgN/A
12:00 AM55 °FCool.1 mph95%30.11 "HgN/A
Weather by CustomWeather, © 2015

See weather overviewHow to use our weather pages